Simultaneous Nadir Overpasses (SNOs) Predictions

Prediction of SNOs between NOAA-19 and TERRA Satellite Orbit:

Table of predicted SNOs for the next 14.0 days since TLE Epoch: 7/26/2014
Index Date (NOAA-19) Time (NOAA-19) Lat,Lon (NOAA-19) SZA (NOAA-19 ) Date (TERRA) Time (TERRA) Lat,Lon (TERRA) SZA (TERRA ) Distance(km) Time Diff (sec)
1 07/26/2014 12:04:55 -71.24, 179.63 128.24 07/26/2014 12:06:05 -71.12,-179.12 128.37 46.87 70
2 07/26/2014 12:55:43 70.72, -12.20 51.24 07/26/2014 12:55:38 70.71, -12.12 51.23 3.42 5
3 07/26/2014 13:46:29 -69.72, 156.63 129.75 07/26/2014 13:45:23 -69.77, 154.16 129.71 95.36 66
4 07/28/2014 17:39:32 70.74, -83.16 51.76 07/28/2014 17:39:58 70.75, -83.14 51.77 1.99 26
5 07/28/2014 18:30:35 -70.60, 84.29 128.37 07/28/2014 18:29:29 -70.58, 84.24 128.39 2.77 66
6 07/30/2014 22:23:22 70.81,-154.22 52.36 07/30/2014 22:24:18 70.80,-154.15 52.35 2.75 56
7 07/30/2014 23:14:25 -70.67, 13.26 127.78 07/30/2014 23:13:49 -70.64, 13.23 127.81 3.32 36
8 08/02/2014 03:07:22 71.41, 133.80 53.51 08/02/2014 03:08:30 71.29, 135.54 53.40 62.96 68
9 08/02/2014 03:58:14 -70.69, -57.71 127.21 08/02/2014 03:58:09 -70.69, -57.77 127.21 2.35 5
10 08/02/2014 04:48:56 69.88, 110.86 52.00 08/02/2014 04:47:48 69.94, 108.77 52.05 79.87 68
11 08/04/2014 08:42:04 -70.77,-128.77 126.55 08/04/2014 08:42:29 -70.76,-128.76 126.57 1.69 25
12 08/04/2014 09:32:59 70.65, 38.70 53.34 08/04/2014 09:31:56 70.66, 38.73 53.34 1.65 63
13 08/06/2014 13:25:52 -70.81, 160.23 125.91 08/06/2014 13:26:48 -70.82, 160.25 125.90 1.55 56
14 08/06/2014 14:16:47 70.69, -32.30 53.98 08/06/2014 14:16:16 70.67, -32.34 53.95 3.01 31
15 08/08/2014 18:09:52 -71.43, 88.22 124.68 08/08/2014 18:11:01 -71.28, 89.88 124.83 61.49 69
16 08/08/2014 19:00:36 70.74,-103.31 54.65 08/08/2014 19:00:36 70.74,-103.32 54.64 0.61 0




NCC Satellite Simultaneous Nadir Overpasses (SNOs) Prediction Service
